{"data":{"norad_id":41773,"epoch":"2026-05-25T00:35:00.383136Z","epoch_age_seconds":69373,"freshness":"FRESH","line1":"1 41773U 16058D   26145.02430999  .00011228  00000+0  26985-3 0  9992","line2":"2 41773  97.0185 167.9998 0005080 119.8267 240.3486 15.41468443541489","mean_motion":15.41468443,"eccentricity":0.000508,"inclination_deg":97.0185,"raan_deg":167.9998,"arg_perigee_deg":119.8267,"mean_anomaly_deg":240.3486,"bstar":0.00026985,"rev_number":54148,"period_min":93.417416784574,"perigee_km":438.31014456273,"apogee_km":445.23917480897,"semimajor_km":6819.9116596858,"source":"CELESTRAK","updated_at":"2026-05-25T13:38:13.295460Z"}}